Regional Weather Roundup
Issued by NWS

Home | Current Version | Previous Version | Graphics & Text | Print | Product List | Glossary Off
Versions: 1 2 3 4 5 6 7 8 9 10 11 12 13 14 15 16 17 18 19 20 21 22 23 24 25 26 27 28 29 30 31 32 33 34 35 36 37 38 39 40 41 42 43 44 45 46 47 48 49 50

000
ASUS43 KMPX 031501
RWRMN
WEATHER ROUNDUP FOR MINNESOTA
NATIONAL WEATHER SERVICE TWIN CITIES/CHANHASSEN MN
900 AM CST TUE MAR 03 2015


NOTE: "FAIR" INDICATES FEW OR NO CLOUDS BELOW 12,000 FEET WITH NO
SIGNIFICANT WEATHER AND/OR OBSTRUCTIONS TO VISIBILITY. N/A MEANS
CURRENT SKY AND/OR WEATHER CONDITIONS ARE NOT AVAILABLE.

MNZ060>063-068>070-031600-
   Twin Cities Metro

CITY           SKY/WX    TMP DP  RH WIND       PRES   REMARKS
TWIN CITIES    LGT SNOW  21  18  88 SE5       29.70F VSB 3/4 WCI  15
ST PAUL        SNOW      22  20  92 SE6       29.72F VSB 1/2 WCI  14
CRYSTAL        HVY SNOW  23  21  92 CALM      29.69F VSB 1/4
BLAINE         SNOW      25  23  93 S6        29.69F VSB 1/4 WCI  18
LAKEVILLE      CLOUDY    21  19  93 CALM      29.70S VSB 3/4
EDEN PRAIRIE   SNOW      23  20  88 S3        29.69F VSB 1/4
SOUTH ST PAUL  MIX PCPN  23  21  91 CALM      29.71S
LAKE ELMO      LGT SNOW  23  21  93 S5        29.70F VSB 1   WCI  17
$$
MNZ001>005-007-008-013>017-022>024-027-028-031600-
   Northwest Minnesota

CITY           SKY/WX    TMP DP  RH WIND       PRES   REMARKS
BEMIDJI        LGT SNOW  17  12  80 NW20      29.67R WCI   1
HALLOCK        CLOUDY    10   3  72 NW20      29.81S WCI  -8
ROSEAU         CLOUDY    12   5  73 NW22      29.72R WCI  -7
WARROAD        CLOUDY    12   7  79 NW22G33   29.71R HAZE    WCI  -7
THIEF RVR FALL CLOUDY    10   7  85 NW18      29.77R WCI  -8
CROOKSTON      LGT SNOW  12   9  85 N23       29.83R WCI  -7
FOSSTON        CLOUDY    12   5  73 NW23      29.76R HAZE    WCI  -7
DETROIT LAKES  CLOUDY    18  12  79 N23G33    29.75R HAZE    WCI   0
MOORHEAD       CLOUDY    16  10  79 NW23G32   29.84R WCI  -2
PARK RAPIDS    LGT SNOW  20  14  77 NW16      29.66R WCI   6
MAHNOMEN       CLOUDY    15   9  77 NW21      29.75R WCI  -3
$$
MNZ006-009>011-018-025>026-031600-
   North Central Minnesota

CITY           SKY/WX    TMP DP  RH WIND       PRES   REMARKS
BAUDETTE       LGT SNOW  16  11  80 NW22G32   29.63R WCI  -2
FLAG ISLAND    LGT SNOW  10   3  72 NW32      29.68R VSB 1   WCI -12
INTL FALLS     LGT SNOW  22  18  85 W13       29.56S FOG     WCI  10
WASKISH        LGT SNOW  19  16  86 W10G20    29.64R WCI   8
BIG FORK       LGT SNOW  21  19  93 SW9       29.59S WCI  11
LONGVILLE      LGT SNOW  21  19  93 SW6       29.63S VSB 1   WCI  14
GRAND RAPIDS   CLOUDY    19  18  93 SW8       29.60F VSB 3/4 WCI   9
CRANE LAKE     LGT SNOW  19  18  93 SW6       29.58F WCI  11
ORR            MIX PCPN  21  16  79 SW9       29.55S WCI  11
COOK           LGT SNOW  19  18  93 SW8       29.58F VSB 3/4 WCI   9
WALKER         LGT SNOW  20  16  85 NW10G20   29.64R WCI   9
$$
MNZ012-019>021-037-031600-
   Northeast Minnesota

CITY           SKY/WX    TMP DP  RH WIND       PRES   REMARKS
DULUTH         SNOW      19  15  84 SW12      29.61F VSB 1/4 WCI   7
ELY            LGT SNOW  19  18  93 SW10      29.56F WCI   8
HIBBING        SNOW      20  16  84 S5        29.59F VSB 1/2 WCI  13
EVELETH        SNOW      21  18  86 SW7       29.60F VSB 1/2 WCI  13
DULUTH HARBOR  LGT SNOW  21  19  93 SW9       29.68F WCI  11
TWO HARBORS    SNOW      23  18  80 SW9       29.62S VSB 1/2 WCI  13
SILVER BAY     SNOW      21  19  93 SW6       29.61F VSB 1/4 WCI  14
GRAND MARAIS     N/A     26  24  92 SW23      29.64F WCI  11
G MARAIS ARPRT LGT SNOW  19  16  86 S9        29.56F VSB 3/4 WCI   9
$$
MNZ029>031-032-039>041-046>048-054>057-064-031600-
   West Central Minnesota

CITY           SKY/WX    TMP DP  RH WIND       PRES   REMARKS
FERGUS FALLS   LGT SNOW  18  12  79 NW22G35   29.80R WCI   0
WHEATON        LGT SNOW  16  12  86 NW22G35   29.82R WCI  -2
MORRIS         LGT SNOW  19  16  86 NW24G36   29.73R VSB 3/4 WCI   2
ALEXANDRIA     LGT SNOW  22  19  89 NW18G29   29.67R VSB 1   WCI   7
ELBOW LAKE     LGT SNOW  17  15  89 NW18G29   29.74R WCI   1
WADENA         LGT SNOW  19  16  86 NW17G28   29.67R WCI   4
GLENWOOD       LGT SNOW  23  21  93 W10       29.67R WCI  12
APPLETON       LGT SNOW  21  18  86 NW28G33   29.75R WCI   3
BENSON         LGT SNOW  19  16  86 N21G28    29.71R WCI   3
ORTONVILLE     LGT SNOW  18  14  86 NW22G33   29.77R VSB 1   WCI   0
MADISON        LGT SNOW  21  18  86 N26G36    29.76R VSB 1   WCI   4
WILLMAR        LGT SNOW  25  21  86 SW8       29.69S VSB 1   WCI  16
$$
MNZ033>034-036-042>043-049>051-058-059-031600-
   Central Minnesota

CITY           SKY/WX    TMP DP  RH WIND       PRES   REMARKS
ST CLOUD       SNOW      20  18  92 S5        29.67F VSB 1/4 WCI  13
SAUK CENTRE    LGT SNOW  21  19  92 SW7       29.67S VSB 1   WCI  12
PAYNESVILLE    SNOW      19  18  96 S5        29.67S VSB 1/2 WCI  12
AITKIN         LGT SNOW  21  18  86 S6        29.63F WCI  14
PINE RIVER     LGT SNOW  21  19  93 SW5       29.67F VSB 1   WCI  15
BRAINERD       SNOW      20  17  88 SW9       29.65F VSB 1/2 WCI   9
STAPLES        LGT SNOW  19  19 100 SW6       29.65S VSB 3/4 WCI  11
LITTLE FALLS   LGT SNOW  21  19  93 S3        29.67S VSB 1
LITCHFIELD     LGT SNOW  23  23 100 S3        29.67S VSB 3/4
BUFFALO        SNOW      22  19  91 S3        29.69F VSB 1/2
MAPLE LAKE     SNOW      23  21  93 S3        29.68F VSB 1/2
$$
MNZ037-044-045-052-053-031600-
   East Central Minnesota

CITY           SKY/WX    TMP DP  RH WIND       PRES   REMARKS
PRINCETON      SNOW      21  19  93 CALM      29.67F VSB 1/4
MORA           LGT SNOW  19  16  86 CALM      29.69F VSB 3/4
RUSH CITY      LGT SNOW  20  18  91 S3        29.69F
MOOSE LAKE     HVY SNOW  19  18  93 CALM      29.64F VSB 1/4
HINCKLEY       LGT SNOW  21  19  93 S6        29.68F VSB 3/4 WCI  14
CLOQUET        SNOW      19  16  86 S9        29.63F VSB 1/2 WCI   9
MCGREGOR       CLOUDY    21  19  93 S7        29.65S VSB 3/4 WCI  13
$$
MNZ071>073-080-081-089-090-097-098-031600-
   Southwest Minnesota

CITY           SKY/WX    TMP DP  RH WIND       PRES   REMARKS
MONTEVIDEO     LGT SNOW  21  19  93 N24G35    29.72R VSB 3/4 WCI   4
GRANITE FALLS  LGT SNOW  24  22  92 SW9       29.71S WCI  15
CANBY          LGT SNOW  23  20  90 N21G31    29.76R WCI   8
MARSHALL       CLOUDY    25  19  80 W18       29.73R WCI  11
REDWOOD FALLS  SNOW      24  22  91 SW5       29.69R VSB 1/2 WCI  18
OLIVIA         LGT SNOW  23  21  93 SW7       29.67F VSB 1   WCI  15
PIPESTONE      LGT SNOW  25  21  86 NW9       29.69R WCI  15
WINDOM         LGT SNOW  25  23  93 SW7       29.68R WCI  17
WORTHINGTON    CLOUDY    28  19  69 W8        29.70R WCI  20
JACKSON        LGT SNOW  27  23  86 W7        29.68R WCI  19
TRACY          LGT SNOW  26  24  90 W9        29.70R WCI  17
SLAYTON        LGT SNOW  24  22  92 CALM      29.70R VSB 1
$$
MNZ065>067-074>077-082>085-091>093-031600-
   South Central Minnesota

CITY           SKY/WX    TMP DP  RH WIND       PRES   REMARKS
MANKATO        CLOUDY    25  21  86 SW5       29.69S VSB 1   WCI  19
NEW ULM        LGT SNOW  23  21  93 CALM      29.69S VSB 3/4
ST JAMES       LGT SNOW  25  23  93 SW3       29.70S VSB 1
FAIRMONT       CLOUDY    25  21  86 W3        29.67S
GLENCOE        SNOW      24  23  96 CALM      29.67F VSB 1/4
FARIBAULT      LGT SNOW  25  21  86 CALM      29.69S VSB 1
OWATONNA       CLOUDY    25  21  86 S6        29.68S VSB 3/4 WCI  18
WASECA         SNOW      23  21  93 S6        29.71R VSB 1/2 WCI  16
ALBERT LEA     MIX PCPN  25  25 100 SW3       29.67F
$$
MNZ078>079-086>088-094>096-031600-
   Southeast Minnesota

CITY           SKY/WX    TMP DP  RH WIND       PRES   REMARKS
ROCHESTER      LGT SNOW  24  22  91 S10       29.68S VSB 1   WCI  14
RED WING       HVY SNOW  25  21  86 CALM      29.71S VSB 1/4
STANTON        SNOW      25  22  89 CALM      29.69S VSB 1/2
DODGE CENTER   LGT SNOW  25  25 100 S8        29.67R WCI  16
WINONA         MIX PCPN  25  23  93 SE3       29.72F VSB 1
AUSTIN         MIX PCPN  25  23  93 S6        29.67S WCI  18
PRESTON        CLOUDY    23  22  96 S7        29.68S FOG     WCI  15
$$
ABBREVIATIONS USED IN REMARKS
   TC - TEMPERATURES IN CELSIUS
  WCI - WIND CHILL INDEX
   HX - HEAT INDEX
  VSB - VISIBILITY
$$



USA.gov is the U.S. government's official web portal to all federal, state and local government web resources and services.